Time,TemperatureF,DewpointF,PressureIn,WindDirection,WindDirectionDegrees,WindSpeedMPH,WindSpeedGustMPH,Humidity,HourlyPrecipIn,Conditions,Clouds,dailyrainin,SoftwareType,DateUTC
2013-01-12 00:02:00,70.0,66.0,29.91,ENE,66,5.0,12.0,88,0.00,,,0.00,,2013-01-12 10:02:00,
2013-01-12 00:11:00,70.0,66.0,29.91,ENE,66,5.0,12.0,88,0.00,,,0.00,,2013-01-12 10:11:00,
2013-01-12 00:22:00,70.0,66.0,29.91,NE,55,12.0,15.0,88,0.00,,,0.00,,2013-01-12 10:22:00,
2013-01-12 00:32:00,71.0,68.0,29.91,NE,52,10.0,16.0,89,0.00,,,0.00,,2013-01-12 10:32:00,
2013-01-12 00:42:00,71.0,68.0,29.91,NE,52,10.0,16.0,89,0.00,,,0.00,,2013-01-12 10:42:00,
2013-01-12 00:52:00,71.0,68.0,29.91,NNE,33,5.0,16.0,89,0.00,,,0.00,,2013-01-12 10:52:00,
2013-01-12 01:02:00,70.0,67.0,29.91,NE,37,10.0,14.0,89,0.00,,,0.00,,2013-01-12 11:02:00,
2013-01-12 01:11:00,70.0,67.0,29.91,NE,45,6.0,14.0,89,0.00,,,0.00,,2013-01-12 11:11:00,
2013-01-12 01:22:00,70.0,67.0,29.91,NE,45,6.0,14.0,89,0.00,,,0.00,,2013-01-12 11:22:00,
2013-01-12 01:32:00,70.0,67.0,29.91,NNE,29,8.0,12.0,89,0.00,,,0.00,,2013-01-12 11:32:00,
2013-01-12 01:42:00,70.0,67.0,29.91,NNE,29,8.0,12.0,89,0.00,,,0.00,,2013-01-12 11:42:00,
2013-01-12 01:53:00,70.0,67.0,29.91,NNE,24,5.0,12.0,89,0.00,,,0.00,,2013-01-12 11:53:00,
2013-01-12 02:02:00,70.0,67.0,29.91,NE,42,8.0,12.0,89,0.00,,,0.00,,2013-01-12 12:02:00,
2013-01-12 02:11:00,70.0,67.0,29.91,NE,42,8.0,12.0,89,0.00,,,0.00,,2013-01-12 12:11:00,
2013-01-12 02:22:00,70.0,67.0,29.91,NNE,31,4.0,16.0,89,0.00,,,0.00,,2013-01-12 12:22:00,
2013-01-12 02:32:00,70.0,67.0,29.91,NE,38,3.0,13.0,89,0.00,,,0.00,,2013-01-12 12:32:00,
2013-01-12 02:42:00,70.0,67.0,29.91,NE,38,3.0,13.0,89,0.00,,,0.00,,2013-01-12 12:42:00,
2013-01-12 02:52:00,70.0,67.0,29.91,NE,41,7.0,15.0,89,0.00,,,0.00,,2013-01-12 12:52:00,
2013-01-12 03:02:00,71.0,68.0,29.90,NNE,31,3.0,13.0,89,0.00,,,0.00,,2013-01-12 13:02:00,
2013-01-12 03:11:00,71.0,68.0,29.90,NNE,31,3.0,13.0,89,0.00,,,0.00,,2013-01-12 13:11:00,
2013-01-12 03:22:00,71.0,68.0,29.89,NNE,20,5.0,16.0,89,0.00,,,0.00,,2013-01-12 13:22:00,
2013-01-12 03:32:00,71.0,68.0,29.89,ENE,63,10.0,18.0,89,0.00,,,0.00,,2013-01-12 13:32:00,
2013-01-12 03:42:00,71.0,68.0,29.89,ENE,63,10.0,18.0,89,0.00,,,0.00,,2013-01-12 13:42:00,
2013-01-12 03:53:00,71.0,68.0,29.89,East,80,9.0,15.0,89,0.00,,,0.00,,2013-01-12 13:53:00,
2013-01-12 04:01:00,71.0,68.0,29.89,NE,38,7.0,13.0,89,0.00,,,0.00,,2013-01-12 14:01:00,
2013-01-12 04:11:00,71.0,68.0,29.89,NE,38,7.0,13.0,89,0.00,,,0.00,,2013-01-12 14:11:00,
2013-01-12 04:22:00,71.0,68.0,29.89,ENE,58,7.0,13.0,89,0.00,,,0.00,,2013-01-12 14:22:00,
2013-01-12 04:32:00,71.0,68.0,29.89,NE,38,7.0,13.0,89,0.00,,,0.00,,2013-01-12 14:32:00,
2013-01-12 04:42:00,71.0,68.0,29.89,NE,38,7.0,13.0,89,0.00,,,0.00,,2013-01-12 14:42:00,
2013-01-12 04:53:00,70.0,67.0,29.89,NE,53,13.0,13.0,89,0.00,,,0.00,,2013-01-12 14:53:00,
2013-01-12 05:02:00,71.0,68.0,29.89,NE,48,4.0,13.0,89,0.00,,,0.00,,2013-01-12 15:02:00,
2013-01-12 05:12:00,71.0,68.0,29.89,East,81,6.0,14.0,89,0.00,,,0.00,,2013-01-12 15:12:00,
2013-01-12 05:22:00,71.0,68.0,29.89,East,81,6.0,14.0,89,0.00,,,0.00,,2013-01-12 15:22:00,
2013-01-12 05:33:00,71.0,68.0,29.90,NE,42,9.0,19.0,89,0.00,,,0.00,,2013-01-12 15:33:00,
2013-01-12 05:42:00,71.0,68.0,29.90,NE,42,9.0,19.0,89,0.00,,,0.00,,2013-01-12 15:42:00,
2013-01-12 05:53:00,71.0,68.0,29.90,ENE,69,10.0,12.0,89,0.00,,,0.00,,2013-01-12 15:53:00,
2013-01-12 06:02:00,70.0,67.0,29.91,ENE,67,7.0,12.0,89,0.00,,,0.00,,2013-01-12 16:02:00,
2013-01-12 06:12:00,70.0,67.0,29.91,ENE,67,7.0,12.0,89,0.00,,,0.00,,2013-01-12 16:12:00,
2013-01-12 06:22:00,70.0,67.0,29.91,East,79,8.0,13.0,90,0.00,,,0.00,,2013-01-12 16:22:00,
2013-01-12 06:32:00,70.0,67.0,29.91,ENE,76,5.0,14.0,90,0.00,,,0.00,,2013-01-12 16:32:00,
2013-01-12 06:42:00,70.0,67.0,29.91,NE,56,5.0,12.0,90,0.00,,,0.00,,2013-01-12 16:42:00,
2013-01-12 06:53:00,70.0,67.0,29.91,NE,56,5.0,12.0,90,0.00,,,0.00,,2013-01-12 16:53:00,
2013-01-12 07:02:00,70.0,67.0,29.91,ENE,76,1.0,14.0,90,0.00,,,0.00,,2013-01-12 17:02:00,
2013-01-12 07:12:00,70.0,67.0,29.91,ENE,76,1.0,14.0,90,0.00,,,0.00,,2013-01-12 17:12:00,
2013-01-12 07:22:00,70.0,67.0,29.92,NNE,26,8.0,12.0,90,0.00,,,0.00,,2013-01-12 17:22:00,
2013-01-12 07:32:00,70.0,67.0,29.93,ENE,57,5.0,11.0,90,0.00,,,0.00,,2013-01-12 17:32:00,
2013-01-12 07:42:00,70.0,67.0,29.93,ENE,57,5.0,11.0,90,0.00,,,0.00,,2013-01-12 17:42:00,
2013-01-12 07:53:00,70.0,67.0,29.93,NE,50,0.0,8.0,90,0.00,,,0.00,,2013-01-12 17:53:00,
2013-01-12 08:02:00,70.0,67.0,29.93,ENE,61,1.0,9.0,90,0.00,,,0.00,,2013-01-12 18:02:00,
2013-01-12 08:12:00,70.0,67.0,29.93,ENE,61,1.0,9.0,90,0.00,,,0.00,,2013-01-12 18:12:00,
2013-01-12 08:22:00,71.0,68.0,29.94,ENE,61,3.0,8.0,90,0.00,,,0.00,,2013-01-12 18:22:00,
2013-01-12 08:32:00,71.0,68.0,29.94,ENE,76,5.0,9.0,89,0.00,,,0.00,,2013-01-12 18:32:00,
2013-01-12 08:42:00,71.0,68.0,29.94,ENE,76,5.0,9.0,89,0.00,,,0.00,,2013-01-12 18:42:00,
2013-01-12 08:52:00,71.0,68.0,29.94,East,89,0.0,12.0,89,0.00,,,0.00,,2013-01-12 18:52:00,
2013-01-12 09:02:00,72.0,69.0,29.94,ENE,72,5.0,13.0,89,0.00,,,0.00,,2013-01-12 19:02:00,
2013-01-12 09:12:00,72.0,69.0,29.94,ENE,72,5.0,13.0,89,0.00,,,0.00,,2013-01-12 19:12:00,
2013-01-12 09:22:00,72.0,69.0,29.95,East,82,13.0,13.0,89,0.00,,,0.00,,2013-01-12 19:22:00,
2013-01-12 09:32:00,72.0,69.0,29.95,ENE,74,5.0,11.0,89,0.00,,,0.00,,2013-01-12 19:32:00,
2013-01-12 09:42:00,72.0,69.0,29.95,ENE,74,5.0,11.0,89,0.00,,,0.00,,2013-01-12 19:42:00,
2013-01-12 09:52:00,72.0,69.0,29.95,East,94,8.0,13.0,89,0.00,,,0.01,,2013-01-12 19:52:00,
2013-01-12 10:02:00,72.0,69.0,29.95,ENE,59,7.0,17.0,89,0.00,,,0.01,,2013-01-12 20:02:00,
2013-01-12 10:12:00,73.0,69.0,29.94,ESE,112,3.0,12.0,88,0.00,,,0.01,,2013-01-12 20:12:00,
2013-01-12 10:22:00,73.0,69.0,29.94,ESE,112,3.0,12.0,88,0.00,,,0.01,,2013-01-12 20:22:00,
2013-01-12 10:32:00,74.0,70.0,29.94,ENE,77,8.0,15.0,86,0.00,,,0.01,,2013-01-12 20:32:00,
2013-01-12 10:42:00,74.0,70.0,29.94,ENE,77,8.0,15.0,86,0.00,,,0.01,,2013-01-12 20:42:00,
2013-01-12 10:53:00,75.0,70.0,29.94,East,90,9.0,11.0,85,0.00,,,0.01,,2013-01-12 20:53:00,
2013-01-12 11:02:00,76.0,70.0,29.93,ENE,68,2.0,12.0,83,0.00,,,0.01,,2013-01-12 21:02:00,
2013-01-12 11:12:00,75.0,69.0,29.93,East,95,9.0,12.0,82,0.00,,,0.01,,2013-01-12 21:12:00,
2013-01-12 11:22:00,75.0,69.0,29.93,East,95,9.0,12.0,82,0.00,,,0.01,,2013-01-12 21:22:00,
2013-01-12 11:32:00,76.0,70.0,29.92,East,96,3.0,10.0,83,0.00,,,0.01,,2013-01-12 21:32:00,
2013-01-12 11:42:00,76.0,70.0,29.92,East,96,3.0,10.0,83,0.00,,,0.01,,2013-01-12 21:42:00,
2013-01-12 11:53:00,78.0,71.0,29.92,East,94,5.0,9.0,79,0.00,,,0.01,,2013-01-12 21:53:00,
2013-01-12 12:02:00,78.0,70.0,29.92,East,96,3.0,8.0,77,0.00,,,0.01,,2013-01-12 22:02:00,
2013-01-12 12:11:00,78.0,70.0,29.92,East,96,3.0,8.0,77,0.00,,,0.01,,2013-01-12 22:11:00,
2013-01-12 12:22:00,77.0,70.0,29.90,ESE,110,7.0,9.0,79,0.00,,,0.01,,2013-01-12 22:22:00,
2013-01-12 12:32:00,77.0,70.0,29.90,ESE,116,7.0,9.0,79,0.00,,,0.01,,2013-01-12 22:32:00,
2013-01-12 12:42:00,77.0,70.0,29.90,ESE,116,7.0,9.0,79,0.00,,,0.01,,2013-01-12 22:42:00,
2013-01-12 12:52:00,77.0,70.0,29.89,ENE,78,0.0,9.0,78,0.00,,,0.01,,2013-01-12 22:52:00,
2013-01-12 13:02:00,76.0,69.0,29.88,ESE,114,3.0,9.0,78,0.00,,,0.01,,2013-01-12 23:02:00,
2013-01-12 13:12:00,76.0,69.0,29.88,East,89,0.0,7.0,78,0.00,,,0.01,,2013-01-12 23:12:00,
2013-01-12 13:22:00,76.0,69.0,29.88,East,89,0.0,7.0,78,0.00,,,0.01,,2013-01-12 23:22:00,
2013-01-12 13:32:00,77.0,69.0,29.88,East,92,3.0,7.0,77,0.00,,,0.01,,2013-01-12 23:32:00,
2013-01-12 13:42:00,77.0,69.0,29.88,East,92,3.0,7.0,77,0.00,,,0.01,,2013-01-12 23:42:00,
2013-01-12 13:53:00,75.0,69.0,29.88,East,84,7.0,9.0,82,0.00,,,0.01,,2013-01-12 23:53:00,
2013-01-12 14:02:00,75.0,69.0,29.89,ENE,76,2.0,7.0,83,0.00,,,0.01,,2013-01-13 00:02:00,
2013-01-12 14:11:00,75.0,69.0,29.89,ENE,76,2.0,7.0,83,0.00,,,0.01,,2013-01-13 00:11:00,
2013-01-12 14:22:00,75.0,70.0,29.88,ENE,76,0.0,2.0,84,0.00,,,0.01,,2013-01-13 00:22:00,
2013-01-12 14:32:00,76.0,70.0,29.87,ENE,76,2.0,5.0,81,0.00,,,0.01,,2013-01-13 00:32:00,
2013-01-12 14:42:00,76.0,70.0,29.87,ENE,76,2.0,5.0,81,0.00,,,0.01,,2013-01-13 00:42:00,
2013-01-12 14:52:00,77.0,70.0,29.87,ESE,104,2.0,5.0,78,0.00,,,0.01,,2013-01-13 00:52:00,
2013-01-12 15:02:00,77.0,69.0,29.87,East,101,1.0,8.0,77,0.00,,,0.01,,2013-01-13 01:02:00,
2013-01-12 15:11:00,77.0,69.0,29.87,East,101,1.0,8.0,77,0.00,,,0.01,,2013-01-13 01:11:00,
2013-01-12 15:22:00,79.0,70.0,29.88,East,100,0.0,3.0,75,0.00,,,0.01,,2013-01-13 01:22:00,
2013-01-12 15:32:00,79.0,70.0,29.88,East,81,1.0,6.0,74,0.00,,,0.01,,2013-01-13 01:32:00,
2013-01-12 15:42:00,79.0,70.0,29.88,East,81,1.0,6.0,74,0.00,,,0.01,,2013-01-13 01:42:00,
2013-01-12 15:52:00,77.0,68.0,29.88,East,90,0.0,8.0,74,0.00,,,0.01,,2013-01-13 01:52:00,
2013-01-12 16:01:00,77.0,70.0,29.89,East,92,5.0,8.0,78,0.00,,,0.01,,2013-01-13 02:01:00,
2013-01-12 16:12:00,77.0,70.0,29.89,East,92,5.0,8.0,78,0.00,,,0.01,,2013-01-13 02:12:00,
2013-01-12 16:22:00,78.0,69.0,29.89,East,98,0.0,8.0,75,0.00,,,0.01,,2013-01-13 02:22:00,
2013-01-12 16:32:00,78.0,69.0,29.89,SE,131,3.0,8.0,73,0.00,,,0.01,,2013-01-13 02:32:00,
2013-01-12 16:42:00,78.0,69.0,29.89,SE,131,3.0,8.0,73,0.00,,,0.01,,2013-01-13 02:42:00,
2013-01-12 16:53:00,78.0,69.0,29.88,SE,132,0.0,6.0,73,0.00,,,0.01,,2013-01-13 02:53:00,
2013-01-12 17:02:00,78.0,69.0,29.89,SE,134,5.0,7.0,73,0.00,,,0.01,,2013-01-13 03:02:00,
2013-01-12 17:11:00,78.0,69.0,29.89,SE,134,5.0,7.0,73,0.00,,,0.01,,2013-01-13 03:11:00,
2013-01-12 17:22:00,77.0,68.0,29.90,SE,130,3.0,6.0,75,0.00,,,0.01,,2013-01-13 03:22:00,
2013-01-12 17:32:00,77.0,69.0,29.90,SE,132,1.0,6.0,76,0.00,,,0.00,,2013-01-13 03:32:00,
2013-01-12 17:42:00,77.0,69.0,29.90,SE,132,1.0,6.0,76,0.00,,,0.00,,2013-01-13 03:42:00,
2013-01-12 17:52:00,76.0,69.0,29.91,SE,133,0.0,3.0,78,0.00,,,0.00,,2013-01-13 03:52:00,
2013-01-12 18:02:00,75.0,68.0,29.91,SE,132,0.0,5.0,79,0.00,,,0.00,,2013-01-13 04:02:00,
2013-01-12 18:12:00,75.0,68.0,29.91,SE,132,0.0,5.0,79,0.00,,,0.00,,2013-01-13 04:12:00,
2013-01-12 18:22:00,76.0,69.0,29.91,SE,133,0.0,4.0,79,0.00,,,0.00,,2013-01-13 04:22:00,
2013-01-12 18:32:00,76.0,69.0,29.92,SE,134,4.0,7.0,79,0.00,,,0.00,,2013-01-13 04:32:00,
2013-01-12 18:42:00,76.0,69.0,29.92,SE,134,4.0,7.0,79,0.00,,,0.00,,2013-01-13 04:42:00,
2013-01-12 18:52:00,76.0,69.0,29.92,SE,129,3.0,7.0,79,0.00,,,0.00,,2013-01-13 04:52:00,
2013-01-12 19:02:00,75.0,68.0,29.92,SE,130,3.0,6.0,79,0.00,,,0.00,,2013-01-13 05:02:00,
2013-01-12 19:12:00,75.0,68.0,29.92,SE,130,3.0,6.0,79,0.00,,,0.00,,2013-01-13 05:12:00,
2013-01-12 19:22:00,75.0,68.0,29.92,SE,130,2.0,4.0,80,0.00,,,0.00,,2013-01-13 05:22:00,
2013-01-12 19:32:00,74.0,67.0,29.93,SE,132,0.0,5.0,80,0.00,,,0.00,,2013-01-13 05:32:00,
2013-01-12 19:42:00,74.0,67.0,29.93,SE,132,0.0,5.0,80,0.00,,,0.00,,2013-01-13 05:42:00,
2013-01-12 19:52:00,74.0,67.0,29.93,SE,132,0.0,4.0,80,0.00,,,0.00,,2013-01-13 05:52:00,
2013-01-12 20:02:00,74.0,67.0,29.93,SE,132,0.0,0.0,80,0.00,,,0.00,,2013-01-13 06:02:00,
2013-01-12 20:12:00,73.0,67.0,29.94,SE,132,0.0,4.0,81,0.00,,,0.00,,2013-01-13 06:12:00,
2013-01-12 20:22:00,73.0,67.0,29.94,SE,132,0.0,4.0,81,0.00,,,0.00,,2013-01-13 06:22:00,
2013-01-12 20:32:00,73.0,67.0,29.94,SE,132,0.0,3.0,82,0.00,,,0.00,,2013-01-13 06:32:00,
2013-01-12 20:42:00,73.0,67.0,29.94,SE,132,0.0,3.0,82,0.00,,,0.00,,2013-01-13 06:42:00,
2013-01-12 20:52:00,73.0,67.0,29.95,SE,132,2.0,5.0,82,0.00,,,0.00,,2013-01-13 06:52:00,
2013-01-12 21:02:00,73.0,68.0,29.95,SE,132,0.0,2.0,83,0.00,,,0.00,,2013-01-13 07:02:00,
2013-01-12 21:11:00,73.0,68.0,29.95,SE,132,0.0,2.0,83,0.00,,,0.00,,2013-01-13 07:11:00,
2013-01-12 21:22:00,73.0,68.0,29.95,SE,132,1.0,4.0,84,0.00,,,0.00,,2013-01-13 07:22:00,
2013-01-12 21:32:00,73.0,68.0,29.95,SE,132,0.0,3.0,84,0.00,,,0.00,,2013-01-13 07:32:00,
2013-01-12 21:42:00,73.0,68.0,29.95,SE,132,0.0,3.0,84,0.00,,,0.00,,2013-01-13 07:42:00,
2013-01-12 21:52:00,72.0,67.0,29.96,SE,132,1.0,4.0,85,0.00,,,0.00,,2013-01-13 07:52:00,
2013-01-12 22:01:00,72.0,67.0,29.95,SE,132,0.0,5.0,85,0.00,,,0.00,,2013-01-13 08:01:00,
2013-01-12 22:11:00,72.0,67.0,29.95,SE,132,0.0,5.0,85,0.00,,,0.00,,2013-01-13 08:11:00,
2013-01-12 22:22:00,72.0,68.0,29.96,SE,132,0.0,4.0,86,0.00,,,0.00,,2013-01-13 08:22:00,
2013-01-12 22:32:00,72.0,68.0,29.96,SE,132,3.0,4.0,86,0.00,,,0.00,,2013-01-13 08:32:00,
2013-01-12 22:42:00,72.0,68.0,29.96,SE,132,3.0,4.0,86,0.00,,,0.00,,2013-01-13 08:42:00,
2013-01-12 22:52:00,72.0,68.0,29.96,SE,132,0.0,1.0,86,0.00,,,0.00,,2013-01-13 08:52:00,
2013-01-12 23:02:00,71.0,67.0,29.96,SE,132,0.0,5.0,87,0.00,,,0.00,,2013-01-13 09:02:00,
2013-01-12 23:11:00,71.0,67.0,29.96,SE,132,0.0,4.0,87,0.00,,,0.00,,2013-01-13 09:11:00,
2013-01-12 23:22:00,71.0,67.0,29.96,SE,132,0.0,4.0,87,0.00,,,0.00,,2013-01-13 09:22:00,
2013-01-12 23:32:00,71.0,67.0,29.95,SE,132,0.0,3.0,87,0.00,,,0.00,,2013-01-13 09:32:00,
2013-01-12 23:42:00,71.0,67.0,29.95,SE,132,0.0,3.0,87,0.00,,,0.00,,2013-01-13 09:42:00,
2013-01-12 23:52:00,71.0,67.0,29.96,SE,132,0.0,1.0,88,0.00,,,0.00,,2013-01-13 09:52:00,